• Processing (Info)

  • MPEC 2016-R17 : 2016 QP44

    The following Minor Planet Electronic Circular may be linked-to from your own Web pages, but must not otherwise be redistributed electronically.

    A form allowing access to any MPEC is at the bottom of this page.


    Read MPEC 2016-R16 Read MPEC 2016-R18


    M.P.E.C. 2016-R17                                Issued 2016 Sept. 1, 18:07 UT
    
         The Minor Planet Electronic Circulars contain information on unusual
             minor planets and routine data on comets.  They are published
        on behalf of Division F of the International Astronomical Union by the
              Minor Planet Center, Smithsonian Astrophysical Observatory,
                              Cambridge, MA 02138, U.S.A.
    
                 Prepared using the Tamkin Foundation Computer Network
    
                                  MPC@CFA.HARVARD.EDU
                URL https://www.minorplanetcenter.net/    ISSN 1523-6714
    
                                       2016 QP44
    
    Observations:
         K16Q44P* C2016 08 30.31114 23 58 58.22 +13 00 56.8          19.3 VqER017G96
         K16Q44P  C2016 08 30.31846 23 58 59.33 +12 58 57.7          18.9 VqER017G96
         K16Q44P  C2016 08 30.32569 23 59 00.52 +12 57 01.2          18.9 VqER017G96
         K16Q44P  C2016 08 30.33276 23 59 01.64 +12 55 04.9          19.1 VqER017G96
         K16Q44P  C2016 08 30.40954 23 59 13.75 +12 34 13.3          20.0 VqER017G96
         K16Q44P  C2016 08 30.42169 23 59 15.69 +12 30 55.1          19.5 VqER017G96
         K16Q44P  C2016 08 30.43385 23 59 17.62 +12 27 35.6          20.1 VqER017G96
         K16Q44P  C2016 08 30.44595 23 59 19.55 +12 24 16.7          19.8 VqER017G96
         K16Q44P KC2016 08 30.91649 00 00 48.15 +10 14 26.6          20.1 RqER017113
         K16Q44P KC2016 08 30.92458 00 00 49.51 +10 12 13.7                qER017113
         K16Q44P KC2016 08 30.93268 00 00 50.84 +10 09 58.7                qER017113
         K16Q44P  C2016 08 30.94083 00 00 52.25 +10 07 43.0          19.9 VSER017033
         K16Q44P  C2016 08 30.94286 00 00 52.57 +10 07 09.2          20.4 VSER017033
         K16Q44P  C2016 08 30.94487 00 00 52.91 +10 06 35.5          20.2 VSER017033
         K16Q44P KC2016 08 30.96730 00 00 56.42 +10 00 25.0          19.5 VSER017C47
         K16Q44P KC2016 08 30.97073 00 00 56.95 +09 59 28.0          19.9 VSER017C47
         K16Q44P KC2016 08 30.97417 00 00 57.52 +09 58 30.5          20.5 VSER017C47
         K16Q44P tC2016 08 30.97470 00 00 57.73 +09 58 21.9                qER017246
         K16Q44P tC2016 08 30.97561 00 00 57.84 +09 58 04.3                qER017246
         K16Q44P tC2016 08 30.97884 00 00 58.01 +09 57 06.8                qER017246
         K16Q44P  C2016 08 31.00453 00 01 02.62 +09 50 01.0          21.9 VSER017033
         K16Q44P FC2016 08 31.00576 00 01 02.70 +09 49 41.3                qER017246
         K16Q44P FC2016 08 31.00590 00 01 03.04 +09 49 39.7                qER017246
         K16Q44P  C2016 08 31.00654 00 01 02.97 +09 49 27.1          22.0 VSER017033
         K16Q44P  C2016 08 31.06606 00 01 12.58 +09 32 51.9          20.5 VSER017033
         K16Q44P  C2016 08 31.06808 00 01 12.93 +09 32 17.7          20.5 VSER017033
         K16Q44P  C2016 08 31.07010 00 01 13.25 +09 31 43.9          20.8 VSER017033
         K16Q44P KC2016 08 31.86958 00 03 38.92 +05 45 58.5          19.5 VSER017C43
         K16Q44P KC2016 08 31.87285 00 03 39.60 +05 45 02.6          19.6 VSER017C43
         K16Q44P KC2016 08 31.87635 00 03 40.33 +05 44 05.4          19.6 VSER017C43
         K16Q44P KC2016 09 01.01240 00 04 01.92 +05 05 16.5          20.0 RoER017461
         K16Q44P KC2016 09 01.01560 00 04 02.46 +05 04 21.7          20.3 RoER017461
         K16Q44P KC2016 09 01.01878 00 04 02.95 +05 03 26.7          19.8 RoER017461
         K16Q44P KC2016 09 01.05995 00 04 10.04 +04 51 42.0                qER017204
         K16Q44P KC2016 09 01.07001 00 04 11.63 +04 48 49.7                qER017204
         K16Q44P KC2016 09 01.08023 00 04 13.24 +04 45 54.2          20.1 RqER017204
         K16Q44P KC2016 09 01.35978300 05 02.25 +03 25 46.9          20.3 VuER017H21
         K16Q44P KC2016 09 01.36426600 05 02.95 +03 24 29.8          20.0 VuER017H21
         K16Q44P KC2016 09 01.36768200 05 03.46 +03 23 30.6          20.2 VuER017H21
    
    Observer details:
    033 Karl Schwarzschild Observatory, Tautenburg.  Observers B. Stecklum,
        F. Ludwig.  Measurer B. Stecklum.  1.34-m f/3 Schmidt + CCD.
    113 Volkssternwarte Drebach, Schoenbrunn.  Observer G. Lehmann.  0.5-m f/4.6
        reflector + CCD.
    204 Schiaparelli Observatory.  Observer L. Buzzi.  0.60-m f/4.64 reflector
        + CCD.
    246 Klet Observatory-KLENOT.  Observers M. Tichy, J. Ticha.  Measurer M. Tichy.
        1.06-m KLENOT Telescope + CCD.
    461 University of Szeged, Piszkesteto Stn. (Konkoly).  Observers K. Sarneczky,
        P. Szekely.  Measurer K. Sarneczky.  0.60-m Schmidt + CCD.
    C43 Hoyerswerda.  Observer P. Lindner.  0.30-m f/6.3 Schmidt-Cassegrain + CCD.
    C47 Nonndorf.  Observer G. Dangl.  0.25-m f/4.8 reflector + CCD.
    G96 Mt. Lemmon Survey.  Observer R. A. Kowalski.  Measurers E. J. Christensen,
        D. C. Fuls, A. R. Gibbs, A. D. Grauer, J. A. Johnson, R. A. Kowalski,
        S. M. Larson, G. J. Leonard, R. G. Matheny, R. L. Seaman, F. C. Shelly.
        1.5-m reflector + 10K CCD.
    H21 Astronomical Research Observatory, Westfield.  Observer R. Holmes.
        Measurers S. Foglia, L. Buzzi, T. Linder, R. Holmes.  0.61-m f/4.5
        astrograph + CCD, 1.3-m f/4.0 astrograph + CCD.
    
    Orbital elements:
    2016 QP44                                                Earth MOID = 0.1207 AU
    Epoch 2016 July 31.0 TT = JDT 2457600.5                 MPC
    M 354.74261              (2000.0)            P               Q
    n   0.55874699     Peri.  158.31762     +0.79370072     +0.58002921
    a   1.4599094      Node   162.14614     -0.60788209     +0.76755340
    e   0.2361046      Incl.   36.72130     -0.02277134     -0.27281477
    P   1.76           H   23.0           G   0.15           U   8
    Residuals in seconds of arc
    160830 G96  0.2+  0.3-    160830 033  0.3+  0.3-    160831 033  0.0   0.1+
    160830 G96  0.6-  0.4-    160830 C47  0.3-  0.9+    160831 C43 (2.4-  0.4-)
    160830 G96  0.1+  0.6+    160830 C47  0.7-  1.1+    160831 C43  0.4-  0.4-
    160830 G96  0.1+  0.8-    160830 C47  0.5-  0.9+    160831 C43 (1.8+  2.2+)
    160830 G96  0.0   0.1+    160830 246  0.7+  1.3+    160901 461  0.4-  0.2-
    160830 G96  0.1+  0.7+    160830 246  0.1+  1.1-    160901 461  0.1+  0.1-
    160830 G96  0.1+  0.4+    160830 246 (5.1-  4.8-)   160901 461  0.1-  0.5-
    160830 G96  0.0   0.2-    160831 033  0.0   0.2+    160901 204  0.2+  0.3-
    160830 113  0.2-  1.8-    160831 246  0.0   0.9-    160901 204  0.2+  0.2+
    160830 113  0.1+  0.1-    160831 246 (4.6+  0.1-)   160901 204  0.2+  0.3+
    160830 113  0.0   0.3-    160831 033  0.3+  0.1-    160901 H21  0.1+  0.0
    160830 033  0.3+  0.0     160831 033  0.2-  0.4+    160901 H21  0.2+  0.3+
    160830 033  0.1+  0.0     160831 033  0.1+  0.1+    160901 H21  0.2-  0.1+
    
    Ephemeris:
    2016 QP44                a,e,i = 1.46, 0.24, 37                  q = 1.1152
    Date    TT    R. A. (2000) Decl.     Delta      r     Elong.  Phase     V
    2016 08 02    22 30 05.4 +62 59 28   0.3602  1.1168    96.9    64.5    23.3
    ...
    2016 08 17    23 16 26.3 +50 58 18   0.2219  1.1168   112.7    56.8    22.0
    ...
    2016 08 25    23 42 22.1 +33 26 59   0.1590  1.1220   131.2    42.6    20.9
    ...
    2016 08 31    00 01 01.3 +09 52 13   0.1322  1.1281   152.2    24.6    20.0
    2016 09 01    00 03 59.8 +05 09 48   0.1306  1.1293   155.4    21.8    19.9
    2016 09 02    00 06 55.5 +00 22 04   0.1300  1.1306   158.0    19.5    19.8
    ...
    2016 09 08    00 23 20.6 -26 19 03   0.1463  1.1392   152.5    24.1    20.2
    ...
    2016 09 16    00 41 33.4 -48 01 53   0.2046  1.1533   132.4    40.0    21.4
    ...
    2016 10 01    01 03 08.1 -62 33 54   0.3497  1.1870   113.9    50.4    23.0
    
    A. U. Tomatic                (C) Copyright 2016 MPC           M.P.E.C. 2016-R17
    

    Read MPEC 2016-R16 Read MPEC 2016-R18


    MPEC number:

    Enter an MPEC number in one of the following forms:

    • 1997-B01 (the full form)
    • J97B01 (the packed version of the full form)
    • B01 (the abbreviated form)